Aurora, CO

10:11 AM MDT on October 22, 2017 (GMT -0600)
Buckley Air Force Base

Weather History for KBKF - November, 2013

Change the Weather History Date:

Monday, November 4, 2013

  Actual Average Record
Temperature  
Mean Temperature 34 °F -  
Max Temperature 44 °F 53 °F 75 °F (1999)
Min Temperature 24 °F 29 °F 24 °F (2013)
Degree Days  
Heating Degree Days 31    
Moisture  
Dew Point 21 °F    
Average Humidity 63    
Maximum Humidity 100    
Minimum Humidity 33    
Precipitation  
Precipitation 0.00 in - - ()
Sea Level Pressure  
Sea Level Pressure 29.92 in    
Wind  
Wind Speed 11 mph (SE)    
Max Wind Speed 22 mph    
Max Gust Speed 23 mph    
Visibility 10 miles    
Events      
Averages and records for this station are not official NWS values.
T = Trace of Precipitation, MM = Missing Value Source: NWS Daily Summary

Daily Weather History Graph

Daily Weather History Graph

Search for Another Location

Airport or City:

Trip Planner

Search our weather history database for the weather conditions in past years. The results will help you decide how hot, cold, wet, or windy it might be!

Date:

Astronomy

Nov. 04, 2013 Rise Set
Actual Time 6:31 AM MST 4:53 PM MST
Civil Twilight 6:03 AM MST 5:21 PM MST
Nautical Twilight 5:31 AM MST 5:53 PM MST
Astronomical Twilight 4:59 AM MST 6:24 PM MST
Moon 7:44 AM MST (11/4) 6:00 PM MST (11/4)
Length of Visible Light 11h 18m
Length of Day
10h 22m
New Moon, 2% of the Moon is Illuminated
Nov 4
New Moon
Nov 9
First Quarter
Nov 17
Full
Nov 25
Last Quarter
Dec 2
New

Hourly Weather History & Observations

Time (MST) Temp. Windchill Dew Point Humidity Pressure Visibility Wind Dir Wind Speed Gust Speed Precip Events Conditions
12:45 AM 32.0 °F 24.8 °F 30.2 °F 93% 29.87 in 10.0 mi ESE 8.1 mph - N/A   Mostly Cloudy
12:55 AM 32.0 °F 22.1 °F 30.2 °F 93% 29.76 in 10.0 mi East 13.8 mph - N/A   Mostly Cloudy
1:55 AM 32.0 °F 23.6 °F 30.2 °F 93% 29.78 in 10.0 mi East 10.4 mph - N/A   Overcast
2:40 AM 30.2 °F 21.3 °F 30.2 °F 100% 29.88 in 10.0 mi SE 10.4 mph - N/A   Overcast
2:55 AM 30.2 °F 20.8 °F 30.2 °F 100% 29.80 in 10.0 mi ESE 11.5 mph - N/A   Overcast
3:29 AM 30.2 °F 21.3 °F 28.4 °F 93% 29.90 in 10.0 mi SE 10.4 mph - N/A   Mostly Cloudy
3:55 AM 28.4 °F 20.4 °F 24.8 °F 86% 29.82 in 10.0 mi ESE 8.1 mph - N/A   Scattered Clouds
4:55 AM 28.4 °F 21.2 °F 21.2 °F 74% 29.89 in 10.0 mi SE 6.9 mph - N/A   Mostly Cloudy
5:55 AM 24.8 °F 16.1 °F 17.6 °F 74% 29.95 in 10.0 mi SE 8.1 mph - N/A   Scattered Clouds
6:55 AM 24.8 °F 14.6 °F 17.6 °F 74% 29.96 in 70.0 mi SE 10.4 mph - N/A   Scattered Clouds
7:55 AM 30.2 °F 20.2 °F 17.6 °F 60% 30.01 in 70.0 mi SSE 12.7 mph - N/A   Scattered Clouds
8:55 AM 32.0 °F 21.2 °F 12.2 °F 44% 30.01 in 70.0 mi East 16.1 mph - N/A   Mostly Cloudy
9:55 AM 35.6 °F 25.9 °F 12.2 °F 38% 30.01 in 70.0 mi East 16.1 mph - N/A   Mostly Cloudy
10:55 AM 37.4 °F 27.5 °F 10.4 °F 33% 30.00 in 70.0 mi East 18.4 mph 21.9 mph N/A   Mostly Cloudy
11:55 AM 41.0 °F 33.5 °F 14.0 °F 33% 29.97 in 70.0 mi ESE 13.8 mph 21.9 mph N/A   Mostly Cloudy
12:55 PM 41.0 °F 34.3 °F 17.6 °F 39% 29.94 in 70.0 mi SE 11.5 mph 23.0 mph N/A   Mostly Cloudy
1:55 PM 42.8 °F 35.4 °F 17.6 °F 36% 29.92 in 25.0 mi ESE 15.0 mph 21.9 mph N/A   Mostly Cloudy
2:55 PM 44.6 °F 36.9 °F 24.8 °F 46% 29.91 in 25.0 mi SE 18.4 mph - N/A   Mostly Cloudy
3:55 PM 41.0 °F 31.4 °F 23.0 °F 49% 29.93 in 25.0 mi SSE 21.9 mph - N/A   Mostly Cloudy
4:55 PM 39.2 °F 30.8 °F 21.2 °F 49% 29.95 in 25.0 mi SSE 15.0 mph - N/A   Mostly Cloudy
5:55 PM 35.6 °F 29.2 °F 21.2 °F 56% 29.98 in 10.0 mi SE 8.1 mph - N/A   Mostly Cloudy
6:55 PM 35.6 °F 29.2 °F 21.2 °F 56% 29.99 in 10.0 mi South 8.1 mph - N/A   Mostly Cloudy
7:55 PM 35.6 °F 28.6 °F 19.4 °F 52% 29.96 in 10.0 mi South 9.2 mph - N/A   Mostly Cloudy
8:55 PM 32.0 °F 27.5 °F 19.4 °F 60% 29.96 in 10.0 mi SSW 4.6 mph - N/A   Mostly Cloudy
9:55 PM 30.2 °F 21.9 °F 17.6 °F 60% 29.94 in 10.0 mi SSE 9.2 mph - N/A   Scattered Clouds
10:55 PM 32.0 °F 26.4 °F 19.4 °F 60% 29.91 in 10.0 mi South 5.8 mph - N/A   Mostly Cloudy
11:55 PM 32.0 °F - 19.4 °F 60% 29.87 in 10.0 mi WSW 2.3 mph - N/A   Mostly Cloudy